This is the latest recevied weather packets stored in our database for station/object WX5HOT. If no packets are shown the sender has not sent any weather packets the latest 10 day(s).
| Time | Temp. | Humidity | Pressure | Rain* | Wind** | Luminosity | Snow |
|---|---|---|---|---|---|---|---|
| 1777859041 | 20° C | 53% | 1065.9 hPa | 0 mm | - | 0 W/m² | - |
| 1777858739 | 20° C | 53% | 1066.2 hPa | 0 mm | - | 0 W/m² | - |
| 1777858437 | 20° C | 53% | 1066.1 hPa | 0 mm | - | 0 W/m² | - |
| 1777858133 | 20° C | 53% | 1066.3 hPa | 0 mm | - | 0 W/m² | - |
| 1777857831 | 20° C | 52% | 1066.2 hPa | 0 mm | - | 0 W/m² | - |
| 1777857528 | 20° C | 52% | 1066.2 hPa | 0 mm | - | 0 W/m² | - |
| 1777857225 | 20° C | 52% | 1065.9 hPa | 0 mm | - | 0 W/m² | - |
| 1777856921 | 20° C | 52% | 1066.2 hPa | 0 mm | - | 1 W/m² | - |
| 1777856616 | 20.56° C | 52% | 1066 hPa | 0 mm | - | 2 W/m² | - |
| 1777856313 | 20.56° C | 51% | 1066.1 hPa | 0 mm | - | 5 W/m² | - |
| 1777856010 | 20.56° C | 50% | 1066.1 hPa | 0 mm | - | 8 W/m² | - |
| 1777855708 | 21.11° C | 50% | 1066.2 hPa | 0 mm | - | 11 W/m² | - |
| 1777855405 | 21.11° C | 49% | 1066 hPa | 0 mm | - | 15 W/m² | - |
| 1777855101 | 21.11° C | 49% | 1066 hPa | 0 mm | - | 19 W/m² | - |
| 1777854799 | 21.67° C | 49% | 1066.3 hPa | 0 mm | - | 24 W/m² | - |
| 1777854495 | 21.67° C | 48% | 1066.1 hPa | 0 mm | - | 28 W/m² | - |
| 1777854192 | 21.67° C | 48% | 1065.9 hPa | 0 mm | - | 32 W/m² | - |
| 1777853890 | 21.67° C | 47% | 1066.2 hPa | 0 mm | - | 37 W/m² | - |
| 1777853587 | 22.22° C | 47% | 1066.2 hPa | 0 mm | - | 41 W/m² | - |
| 1777853284 | 22.22° C | 47% | 1066.1 hPa | 0 mm | - | 46 W/m² | - |
| 1777852981 | 22.22° C | 46% | 1066.1 hPa | 0 mm | - | 52 W/m² | - |
| 1777852678 | 22.22° C | 46% | 1066 hPa | 0 mm | - | 52 W/m² | - |
| 1777852376 | 22.78° C | 46% | 1065.9 hPa | 0 mm | - | 49 W/m² | - |
| 1777852073 | 22.78° C | 45% | 1066.1 hPa | 0 mm | - | 59 W/m² | - |
| 1777851771 | 22.78° C | 44% | 1066.3 hPa | 0 mm | - | 66 W/m² | - |
* Rain latest hour (hover to see other rain measurements)
** Current wind speed in m/s (hover to see current wind gust speed)